sat.trackr.live / text

‹ back to catalog

STARLINK-3333

NORAD 50805 · 2022-001C

PAYLOAD ACTIVE UNKNOWN

§ Identity

Operator
Country
US
Launch date
2022-01-06
Launch site
AFETR
Launch vehicle
Mass (kg)
RCS (m²)

Purposes: comms

External: N2YO · Heavens-Above · Gunter

§ Orbital elements

Epoch: 2026-05-24T19:04:55.878816Z

Period
95.44 min
Inclination
53.2134°
Eccentricity
0.0000956
Mean motion
15.08835453 rev/d
Perigee alt
539.1 km
Apogee alt
540.4 km
Semi-major
6,917.9 km
B*
-1.0775e-4
RAAN
177.4716°
Arg perigee
78.0088°
Mean anomaly
282.1011°
Rev number
24,203

§ Raw data

STARLINK-33331 50805U 22001C   26144.79509119 -.00002002  00000+0 -10775-3 0  99992 50805  53.2134 177.4716 0000956  78.0088 282.1011 15.08835453242030

JSON: /api/v1/satellites/50805 · /tle

For live sub-satellite position, see the globe view (requires WebGL).

§ Visibility from observer

Set your observer location to see the next 7 days of passes ≥ 10°. The values pass through the URL so the page stays shareable.

No JS? Fill the form by hand. The geolocation button needs JavaScript.